Location: Cutler
(25.6150°N, 80.3110°W)
Time: 14:22:35
(UTC-05:00)

OTV 5 (USA 277) - Pass Details

Date: 19 November 2017
Orbit: 404 x 417 km, 43.0° (Epoch: 07 September)

Event Time Altitude Azimuth Distance (km) Brightness Sun altitude
Exits shadow 05:48:41 - 342° (NNW) 1,676 ? -12.2°
Reaches altitude 10° 05:49:37 10° 355° (N) 1,452 ? -12.0°
Maximum altitude 05:51:18 13° 26° (NNE) 1,269 ? -11.6°
Drops below altitude 10° 05:52:59 10° 57° (ENE) 1,450 ? -11.3°
Sets 05:55:55 0° 85° (E) 2,307 ? -10.6°
